Location: Meriden
(44.0740°N, 93.3870°W)
Time: 18:08:29
(UTC-05:00)

Amateur Radio Satellites - All Passes

Search period start: 24 October 2014 17:38
Search period end: 25 October 2014 17:38
Location: Meriden, 44.0740°N, 93.3870°W

Satellite Date Start Highest point End Downlink Frequencies (MHz)
Time Altitude Azimuth
Hamsat 24 Oct 17:38:23 17:42:16 37° 71° (ENE) 17:46:09 145.90 MHz
Saudisat 1A 24 Oct 17:43:45 17:47:39 31° 244° (WSW) 17:51:31 436.775 MHz
OPAL 24 Oct 17:53:08 17:57:24 28° 97° (E) 18:01:38 ?
Uosat F 24 Oct 17:53:40 17:57:37 23° 266° (W) 18:01:36 435.120 FM
UOSAT-12 24 Oct 17:57:29 17:59:06 12° 333° (NNW) 18:00:43 437.025 FM, 437.400 FM
AO-7 24 Oct 18:14:35 18:20:47 23° 268° (W) 18:27:02 29.400 - 29.500 MHz
ISS 24 Oct 18:36:52 18:40:05 43° 23° (NNE) 18:43:18 145.800 FM
JAS-2 24 Oct 18:49:05 18:54:34 38° 266° (W) 19:00:46 435.800 - 435.900 CW/SSB, 435.910 FM
SO-67 24 Oct 19:03:02 19:06:14 37° 73° (ENE) 19:09:27 435.3500 MHz FM
Hamsat 24 Oct 19:15:16 19:18:21 20° 267° (W) 19:21:27 145.90 MHz
HO-68 24 Oct 19:19:26 19:23:43 17° 50° (NE) 19:28:00 435.675 MHz FM
KITSAT 1 24 Oct 19:30:43 19:36:56 23° 29° (NNE) 19:43:08 435.175 FM
OPAL 24 Oct 19:31:48 19:36:21 37° 295° (WNW) 19:40:51 ?
STRAND 1 24 Oct 19:36:47 19:41:35 38° 97° (E) 19:46:20 ?
SO-50 24 Oct 19:58:17 20:00:15 12° 28° (NNE) 20:02:13 436.795 FM
ISS 24 Oct 20:13:42 20:16:43 32° 221° (SW) 20:19:43 145.800 FM
AO-40 24 Oct 20:13:55 22:53:46 31° 201° (SSW) 03:35:58 Beacon 2401.320
SO-67 24 Oct 20:37:45 20:39:24 13° 269° (W) 20:41:03 435.3500 MHz FM
RS-15 24 Oct 20:44:05 20:49:15 15° 96° (E) 20:54:23 29.354 - 29.394 USB, Beacon 29.352 USB
UKube-1 24 Oct 20:48:21 20:51:05 17° 62° (ENE) 20:53:49 145.840 MHz, 145.915 MHz
HO-68 24 Oct 21:03:09 21:10:17 76° 70° (ENE) 21:17:28 435.675 MHz FM
STRAND 1 24 Oct 21:16:13 21:20:38 30° 295° (WNW) 21:25:02 ?
KITSAT 1 24 Oct 21:25:51 21:33:56 69° 54° (NE) 21:41:58 435.175 FM
FUNcube-1 24 Oct 21:27:24 21:30:18 17° 63° (ENE) 21:33:10 145.950 - 145.970 MHz USB
Oscar 11 24 Oct 21:28:34 21:32:29 35° 69° (ENE) 21:36:25 145.825 FM, Beacon 2401.500 USB
SO-50 24 Oct 21:37:14 21:41:57 49° 50° (NE) 21:46:41 436.795 FM
ZACube-1 24 Oct 22:17:02 22:21:28 50° 72° (ENE) 22:25:51 437.345 MHz
UKube-1 24 Oct 22:22:35 22:26:51 54° 259° (W) 22:31:09 145.840 MHz, 145.915 MHz
RS-15 24 Oct 22:48:30 22:59:20 68° 117° (ESE) 23:10:07 29.354 - 29.394 USB, Beacon 29.352 USB
HO-68 24 Oct 22:53:26 22:58:40 22° 269° (W) 23:03:57 435.675 MHz FM
UOSAT-12 24 Oct 23:01:31 23:05:53 35° 46° (NE) 23:10:10 437.025 FM, 437.400 FM
FUNcube-1 24 Oct 23:01:44 23:06:15 57° 260° (W) 23:10:43 145.950 - 145.970 MHz USB
Oscar 11 24 Oct 23:05:19 23:08:44 23° 266° (W) 23:12:11 145.825 FM, Beacon 2401.500 USB
SO-50 24 Oct 23:18:22 23:22:15 24° 247° (WSW) 23:26:08 436.795 FM
KITSAT 1 24 Oct 23:22:04 23:28:42 29° 254° (WSW) 23:35:19 435.175 FM
MaSat-1 24 Oct 23:51:41 23:55:27 34° 112° (ESE) 23:58:53 437.345 MHz
ZACube-1 24 Oct 23:55:03 23:58:07 18° 268° (W) 00:01:10 437.345 MHz
UOSAT-12 25 Oct 00:41:45 00:46:00 34° 244° (WSW) 00:50:11 437.025 FM, 437.400 FM
RS-15 25 Oct 01:02:07 01:12:23 44° 323° (NW) 01:22:45 29.354 - 29.394 USB, Beacon 29.352 USB
Oscar 10/S400 25 Oct 01:16:44 02:15:08 21° 238° (WSW) 04:45:34 145.825 - 145.975 CW/USB, Beacon 145.810 USB
MaSat-1 25 Oct 01:27:56 01:31:07 22° 306° (NW) 01:34:03 437.345 MHz
Oscar 19 25 Oct 01:55:37 01:59:39 23° 93° (E) 02:03:39 437.125 CW, 437.150 USB
AO-27 25 Oct 02:14:37 02:17:25 14° 89° (E) 02:20:12 436.795 MHz FM
AO-Echo 25 Oct 02:35:03 02:39:42 30° 95° (E) 02:44:20 ?
Oscar 16 25 Oct 02:40:42 02:45:47 61° 101° (ESE) 02:50:50 437.025 USB, Beacon 2401.1428
JAS-1B 25 Oct 02:43:02 02:49:34 57° 102° (ESE) 02:57:21 435.800 - 435.900 CW/SSB
Uribyol 2 25 Oct 03:00:40 03:05:34 40° 98° (E) 03:10:25 436.500 FM
ITAMSAT 1 25 Oct 03:06:42 03:11:40 42° 98° (E) 03:16:36 435.822 SSB
PCSat 25 Oct 03:06:56 03:09:56 15° 104° (ESE) 03:12:57 145.825 MHz
RS-15 25 Oct 03:20:00 03:28:36 25° 357° (N) 03:37:22 29.354 - 29.394 USB, Beacon 29.352 USB
Gurwin Techsat 1B 25 Oct 03:27:31 03:32:25 36° 97° (E) 03:37:16 435.225 FM
Oscar 19 25 Oct 03:34:19 03:39:12 46° 290° (WNW) 03:44:04 437.125 CW, 437.150 USB
TMSAT-1 25 Oct 03:38:41 03:43:30 34° 96° (E) 03:48:17 436.925 FM
AO-27 25 Oct 03:52:15 03:57:30 75° 287° (WNW) 04:02:42 436.795 MHz FM
AO-Echo 25 Oct 04:13:36 04:18:30 38° 292° (WNW) 04:23:23 ?
AO-7 25 Oct 04:19:46 04:26:09 24° 92° (E) 04:32:28 29.400 - 29.500 MHz
Oscar 16 25 Oct 04:21:07 04:24:40 19° 299° (WNW) 04:28:13 437.025 USB, Beacon 2401.1428
Uosat F 25 Oct 04:22:11 04:24:05 12° 88° (E) 04:25:58 435.120 FM
Sapphire 25 Oct 04:24:47 04:30:07 64° 117° (ESE) 04:35:29 437.095 MHz 1200 baud AX-25 AFSK
JAS-1B 25 Oct 04:34:27 04:39:59 30° 296° (WNW) 04:46:19 435.800 - 435.900 CW/SSB
Uribyol 2 25 Oct 04:40:28 04:44:53 29° 295° (WNW) 04:49:16 436.500 FM
ITAMSAT 1 25 Oct 04:46:37 04:50:57 27° 296° (WNW) 04:55:16 435.822 SSB
PCSat 25 Oct 04:47:13 04:52:38 80° 302° (WNW) 04:58:06 145.825 MHz
Gurwin Techsat 1B 25 Oct 05:07:38 05:12:18 32° 294° (WNW) 05:16:56 435.225 FM
OPAL 25 Oct 05:09:07 05:14:11 62° 70° (ENE) 05:19:13 ?
TMSAT-1 25 Oct 05:18:39 05:23:23 34° 294° (WNW) 05:28:05 436.925 FM
AO-27 25 Oct 05:34:24 05:36:06 12° 305° (NW) 05:37:49 436.795 MHz FM
RS-15 25 Oct 05:35:16 05:45:17 37° 31° (NNE) 05:55:35 29.354 - 29.394 USB, Beacon 29.352 USB
JAS-2 25 Oct 05:55:23 06:02:26 36° 94° (E) 06:09:28 435.800 - 435.900 CW/SSB, 435.910 FM
Uosat F 25 Oct 05:58:26 06:03:31 84° 286° (WNW) 06:08:34 435.120 FM
Sapphire 25 Oct 06:09:36 06:13:59 24° 317° (NW) 06:18:24 437.095 MHz 1200 baud AX-25 AFSK
AO-7 25 Oct 06:11:24 06:19:44 79° 291° (WNW) 06:28:04 29.400 - 29.500 MHz
PCSat 25 Oct 06:33:23 06:36:56 17° 323° (NW) 06:40:30 145.825 MHz
OPAL 25 Oct 06:50:05 06:53:27 18° 266° (W) 06:56:49 ?
STRAND 1 25 Oct 06:54:02 06:59:06 63° 72° (ENE) 07:04:12 ?
Hamsat 25 Oct 06:57:54 07:02:04 64° 101° (E) 07:06:15 145.90 MHz
Uosat F 25 Oct 07:39:28 07:41:30 12° 304° (WNW) 07:43:32 435.120 FM
JAS-2 25 Oct 07:40:08 07:47:37 55° 292° (WNW) 07:55:10 435.800 - 435.900 CW/SSB, 435.910 FM
RS-15 25 Oct 07:47:53 07:59:06 87° 238° (WSW) 08:10:46 29.354 - 29.394 USB, Beacon 29.352 USB
Saudisat 1A 25 Oct 07:50:52 07:55:03 46° 119° (ESE) 07:59:17 436.775 MHz
SO-67 25 Oct 07:57:32 08:00:46 36° 98° (E) 08:03:58 435.3500 MHz FM
AO-7 25 Oct 08:05:38 08:11:18 21° 312° (NW) 08:16:59 29.400 - 29.500 MHz
HO-68 25 Oct 08:32:41 08:34:58 12° 85° (E) 08:37:14 435.675 MHz FM
STRAND 1 25 Oct 08:35:27 08:38:43 17° 269° (W) 08:42:02 ?
Hamsat 25 Oct 08:35:31 08:37:31 13° 298° (WNW) 08:39:31 145.90 MHz
JAS-2 25 Oct 09:27:47 09:31:03 13° 311° (NW) 09:34:20 435.800 - 435.900 CW/SSB, 435.910 FM
Saudisat 1A 25 Oct 09:31:10 09:34:49 25° 318° (NW) 09:38:30 436.775 MHz
SO-67 25 Oct 09:31:31 09:33:26 14° 294° (WNW) 09:35:22 435.3500 MHz FM
MaSat-1 25 Oct 09:36:07 09:38:46 86° 245° (WSW) 09:41:12 437.345 MHz
RS-15 25 Oct 10:01:51 10:09:56 24° 259° (W) 10:18:17 29.354 - 29.394 USB, Beacon 29.352 USB
UKube-1 25 Oct 10:09:48 10:13:14 22° 94° (E) 10:16:39 145.840 MHz, 145.915 MHz
HO-68 25 Oct 10:16:44 10:23:56 69° 104° (ESE) 10:31:05 435.675 MHz FM
FUNcube-1 25 Oct 10:50:02 10:53:29 24° 94° (E) 10:56:52 145.950 - 145.970 MHz USB
Oscar 11 25 Oct 10:50:17 10:54:32 57° 100° (E) 10:58:46 145.825 FM, Beacon 2401.500 USB
Sapphire 25 Oct 11:29:03 11:32:18 16° 35° (NE) 11:35:31 437.095 MHz 1200 baud AX-25 AFSK
ZACube-1 25 Oct 11:41:07 11:45:24 87° 103° (ESE) 11:49:35 437.345 MHz
Oscar 10/S400 25 Oct 11:42:53 11:56:21 16° 150° (SSE) 12:06:55 145.825 - 145.975 CW/USB, Beacon 145.810 USB
UKube-1 25 Oct 11:45:30 11:49:31 36° 291° (WNW) 11:53:30 145.840 MHz, 145.915 MHz
PCSat 25 Oct 11:51:04 11:55:15 22° 41° (NE) 11:59:25 145.825 MHz
KITSAT 1 25 Oct 11:56:06 12:03:20 38° 109° (ESE) 12:10:36 435.175 FM
HO-68 25 Oct 12:05:18 12:11:04 27° 303° (WNW) 12:16:48 435.675 MHz FM
Oscar 16 25 Oct 12:22:46 12:25:36 15° 58° (ENE) 12:28:26 437.025 USB, Beacon 2401.1428
FUNcube-1 25 Oct 12:26:08 12:29:55 31° 291° (WNW) 12:33:37 145.950 - 145.970 MHz USB
Oscar 11 25 Oct 12:27:47 12:30:16 15° 298° (WNW) 12:32:45 145.825 FM, Beacon 2401.500 USB
Uribyol 2 25 Oct 12:45:22 12:46:32 11° 54° (NE) 12:47:42 436.500 FM
ITAMSAT 1 25 Oct 12:51:03 12:52:41 11° 55° (NE) 12:54:19 435.822 SSB
ISS 25 Oct 12:56:22 12:59:26 36° 140° (SE) 13:02:32 145.800 FM
Sapphire 25 Oct 13:11:18 13:16:45 70° 57° (ENE) 13:22:09 437.095 MHz 1200 baud AX-25 AFSK
Oscar 19 25 Oct 13:13:44 13:18:29 39° 68° (ENE) 13:23:14 437.125 CW, 437.150 USB
Gurwin Techsat 1B 25 Oct 13:15:54 13:16:17 10° 54° (NE) 13:16:39 435.225 FM
ZACube-1 25 Oct 13:20:43 13:21:05 10° 301° (WNW) 13:21:27 437.345 MHz
JAS-1B 25 Oct 13:31:36 13:37:14 49° 69° (ENE) 13:42:41 435.800 - 435.900 CW/SSB
SO-50 25 Oct 13:33:36 13:38:06 82° 123° (ESE) 13:42:45 436.795 FM
AO-27 25 Oct 13:33:38 13:37:56 27° 64° (ENE) 13:42:16 436.795 MHz FM
PCSat 25 Oct 13:33:49 13:39:15 75° 242° (WSW) 13:44:39 145.825 MHz
AO-Echo 25 Oct 13:49:24 13:54:01 42° 69° (ENE) 13:58:48 ?
KITSAT 1 25 Oct 13:50:33 13:58:28 56° 310° (NW) 14:06:25 435.175 FM
Oscar 16 25 Oct 13:59:07 14:04:17 81° 256° (WSW) 14:09:28 437.025 USB, Beacon 2401.1428
Uribyol 2 25 Oct 14:19:52 14:25:03 70° 73° (ENE) 14:30:16 436.500 FM
ITAMSAT 1 25 Oct 14:26:04 14:31:15 75° 73° (ENE) 14:36:30 435.822 SSB
ISS 25 Oct 14:32:56 14:36:07 40° 338° (NNW) 14:39:18 145.800 FM
Saudisat 1A 25 Oct 14:38:02 14:39:52 12° 31° (NNE) 14:41:42 436.775 MHz
Gurwin Techsat 1B 25 Oct 14:49:59 14:55:13 65° 72° (ENE) 15:00:30 435.225 FM
Oscar 19 25 Oct 14:53:33 14:57:55 28° 265° (W) 15:02:17 437.125 CW, 437.150 USB
UOSAT-12 25 Oct 14:53:36 14:58:05 51° 119° (ESE) 15:02:40 437.025 FM, 437.400 FM
Sapphire 25 Oct 14:56:01 14:59:35 18° 255° (WSW) 15:03:08 437.095 MHz 1200 baud AX-25 AFSK
TMSAT-1 25 Oct 15:00:47 15:05:59 61° 72° (ENE) 15:11:14 436.925 FM
AO-27 25 Oct 15:12:18 15:17:14 43° 262° (W) 15:22:13 436.795 MHz FM
SO-50 25 Oct 15:16:04 15:19:16 18° 324° (NW) 15:22:32 436.795 FM
AO-7 25 Oct 15:20:14 15:27:40 39° 58° (ENE) 15:35:08 29.400 - 29.500 MHz
JAS-1B 25 Oct 15:23:45 15:28:17 23° 267° (W) 15:32:41 435.800 - 435.900 CW/SSB
AO-Echo 25 Oct 15:29:01 15:32:58 24° 267° (W) 15:37:03 ?
Uosat F 25 Oct 15:36:04 15:39:48 22° 62° (ENE) 15:43:34 435.120 FM
KITSAT 1 25 Oct 15:50:08 15:55:51 20° 336° (NNW) 16:01:36 435.175 FM
Uribyol 2 25 Oct 16:01:57 16:05:02 16° 270° (W) 16:08:08 436.500 FM
ITAMSAT 1 25 Oct 16:08:30 16:11:19 15° 271° (W) 16:14:09 435.822 SSB
ISS 25 Oct 16:10:45 16:13:25 22° 358° (N) 16:16:05 145.800 FM
JAS-2 25 Oct 16:11:29 16:15:25 17° 53° (NE) 16:19:36 435.800 - 435.900 CW/SSB, 435.910 FM
Saudisat 1A 25 Oct 16:15:59 16:20:22 58° 52° (NE) 16:24:44 436.775 MHz
Gurwin Techsat 1B 25 Oct 16:32:14 16:35:39 17° 270° (W) 16:39:06 435.225 FM
UOSAT-12 25 Oct 16:34:35 16:38:30 26° 319° (NW) 16:42:28 437.025 FM, 437.400 FM
TMSAT-1 25 Oct 16:42:42 16:46:19 19° 269° (W) 16:49:58 436.925 FM
AO-7 25 Oct 17:12:12 17:20:13 54° 258° (WSW) 17:28:19 29.400 - 29.500 MHz
Uosat F 25 Oct 17:13:20 17:18:13 52° 260° (W) 17:23:10 435.120 FM
OPAL 25 Oct 17:19:31 17:21:47 13° 91° (E) 17:24:03 ?
